TimePDT,TemperatureF,Dew PointF,Humidity,Sea Level PressureIn,VisibilityMPH,Wind Direction,Wind SpeedMPH,Gust SpeedMPH,PrecipitationIn,Events,Conditions,WindDirDegrees,DateUTC
12:56 AM,88.0,72.0,59,29.66,10.0,Calm,Calm,-,N/A,,Clear,0,2013-08-28 07:56:00
1:56 AM,86.0,72.0,63,29.65,10.0,WSW,5.8,-,N/A,,Clear,250,2013-08-28 08:56:00
2:56 AM,87.1,69.1,55,29.65,10.0,Calm,Calm,-,N/A,,Clear,0,2013-08-28 09:56:00
3:56 AM,86.0,68.0,55,29.66,10.0,NW,3.5,-,N/A,,Clear,320,2013-08-28 10:56:00
4:56 AM,84.9,66.9,55,29.66,10.0,NW,6.9,-,N/A,,Clear,320,2013-08-28 11:56:00
5:56 AM,84.0,68.0,58,29.68,10.0,Calm,Calm,-,N/A,,Clear,0,2013-08-28 12:56:00
6:56 AM,86.0,66.0,51,29.71,10.0,NNW,5.8,-,N/A,,Clear,340,2013-08-28 13:56:00
7:56 AM,89.1,66.0,46,29.74,10.0,Calm,Calm,-,N/A,,Clear,0,2013-08-28 14:56:00
8:56 AM,91.9,63.0,38,29.75,10.0,North,9.2,-,N/A,,Clear,360,2013-08-28 15:56:00
9:56 AM,93.9,63.0,36,29.75,10.0,NNE,9.2,-,N/A,,Clear,30,2013-08-28 16:56:00
10:56 AM,96.1,64.9,36,29.75,10.0,NE,4.6,-,N/A,,Clear,50,2013-08-28 17:56:00
11:56 AM,99.0,63.0,30,29.74,10.0,Calm,Calm,-,N/A,,Clear,0,2013-08-28 18:56:00
12:56 PM,100.9,62.1,28,29.72,10.0,Calm,Calm,-,N/A,,Clear,0,2013-08-28 19:56:00
1:56 PM,105.1,62.1,25,29.69,10.0,NE,3.5,-,N/A,,Clear,40,2013-08-28 20:56:00
2:56 PM,106.0,61.0,23,29.66,10.0,NE,5.8,-,N/A,,Clear,50,2013-08-28 21:56:00
3:56 PM,107.1,60.1,22,29.63,10.0,WSW,8.1,-,N/A,,Clear,250,2013-08-28 22:56:00
4:56 PM,108.0,62.1,22,29.62,10.0,North,6.9,-,N/A,,Scattered Clouds,10,2013-08-28 23:56:00
5:56 PM,107.1,61.0,22,29.63,10.0,Calm,Calm,-,N/A,,Clear,0,2013-08-29 00:56:00
6:56 PM,104.0,61.0,24,29.65,10.0,ENE,5.8,-,N/A,,Clear,60,2013-08-29 01:56:00
7:56 PM,102.0,63.0,28,29.67,10.0,Calm,Calm,-,N/A,,Clear,0,2013-08-29 02:56:00
8:56 PM,100.0,64.0,31,29.70,10.0,SE,3.5,-,N/A,,Scattered Clouds,140,2013-08-29 03:56:00
9:56 PM,97.0,61.0,30,29.72,10.0,SE,10.4,-,N/A,,Clear,130,2013-08-29 04:56:00
10:56 PM,93.9,64.0,37,29.72,10.0,NW,6.9,-,N/A,,Clear,320,2013-08-29 05:56:00
11:56 PM,93.9,62.1,35,29.74,10.0,SE,9.2,-,N/A,,Mostly Cloudy,130,2013-08-29 06:56:00